Flag for Cook Islands Weather past 2 weeks in Rarotonga, Cook Islands

Now
68 °F

Passing clouds.


Feels Like: 68 °F
Forecast: 64 / 72 °F
Wind: 12 mph from South

Location: Rarotonga

Current Time: Aug 19, 2014 at 7:50:04 PM

Latest Report: Aug 19, 2014 at 7:00 PM


Visibility: N/A

Pressure: 30.04 "Hg

Humidity: 64%

Dew point: 55 °F

Location of RarotongaLocation

Historic Weather in Rarotonga — Graph

°F

Rarotonga temperature yesterday

Maximum temperature yesterday: 73 °F (at 1:00 PM)
Minimum temperature yesterday: 66 °F (at 8:00 AM)
Average temperature yesterday: 69 °F

Past Weeks' High & Low Weather Summary

 TemperatureHumidityPressure
High81 °F (Aug 7, 1:00 PM)100% (Aug 8, 4:00 PM)30.09 "Hg (Aug 8, 4:00 PM)
Low63 °F (Aug 19, 3:00 AM)50% (Aug 19, 12:00 PM)29.89 "Hg (Aug 8, 4:00 PM)
Average72 °F81%30.00 "Hg
* Reported Aug 4 7:00 PM — Aug 19 7:00 PM, Rarotonga, Weather by CustomWeather, © 2014

Note: Actual official high and low records may vary slightly from our data, if they occured in-between our weather recording intervals... More about our weather records

Advertising

Rarotonga weather history for previous 24 hours

 ConditionsComfort  
Time TempWeatherWind HumidityBarometerVisibility
7:00 PM
Aug 19
68 °FPassing clouds.12 mph64%30.04 "HgN/A
6:00 PM72 °FScattered clouds.7 mph53%30.04 "HgN/A
5:00 PM72 °FScattered clouds.9 mph50%30.04 "HgN/A
4:00 PM72 °FPassing clouds.14 mph50%30.01 "HgN/A
3:00 PM73 °FPassing clouds.13 mph50%30.01 "HgN/A
2:00 PM72 °FScattered clouds.13 mph65%30.04 "HgN/A
1:00 PM73 °FScattered clouds.12 mph53%30.04 "HgN/A
12:00 PM73 °FScattered clouds.12 mph50%30.07 "HgN/A
11:00 AM73 °FScattered clouds.9 mph65%30.09 "HgN/A
10:00 AM72 °FScattered clouds.8 mph53%30.09 "HgN/A
9:00 AM70 °FScattered clouds.7 mph57%30.09 "HgN/A
8:00 AM66 °FPartly sunny.8 mph64%30.07 "HgN/A
7:00 AM63 °FPartly sunny.3 mph73%30.04 "HgN/A
6:00 AM63 °FPassing clouds.6 mph73%30.04 "HgN/A
5:00 AM63 °FPassing clouds.5 mph73%30.01 "HgN/A
4:00 AM63 °FPassing clouds.3 mph68%30.04 "HgN/A
3:00 AM63 °FPassing clouds.5 mph68%30.04 "HgN/A
2:00 AM64 °FPassing clouds.5 mph68%30.04 "HgN/A
1:00 AM64 °FPassing clouds.3 mph68%30.07 "HgN/A
12:00 AM66 °FPassing clouds.7 mph64%30.07 "HgN/A
11:00 PM
Aug 18
66 °FPassing clouds.5 mph64%30.07 "HgN/A
10:00 PM66 °FPassing clouds.5 mph64%30.07 "HgN/A
9:00 PM68 °FPassing clouds.5 mph64%30.07 "HgN/A
8:00 PM68 °FPassing clouds.8 mph69%30.04 "HgN/A
7:00 PM68 °FPassing clouds.7 mph69%30.04 "HgN/A
Weather by CustomWeather, © 2014

See weather overviewHow to use our weather pages